CDT,Max TemperatureF,Mean TemperatureF,Min TemperatureF,Max Dew PointF,MeanDew PointF,Min DewpointF,Max Humidity, Mean Humidity, Min Humidity, Max Sea Level PressureIn, Mean Sea Level PressureIn, Min Sea Level PressureIn, Max VisibilityMiles, Mean VisibilityMiles, Min VisibilityMiles, Max Wind SpeedMPH, Mean Wind SpeedMPH, Max Gust SpeedMPH,PrecipitationIn, CloudCover, Events, WindDirDegrees
2013-7-1,91,79,68,76,69,62,100,83,38,29.91,29.81,29.78,10,6,0,12,3,,0.00,3,Fog,190
2013-7-2,89,80,72,71,67,62,91,66,40,30.02,29.97,29.89,10,10,10,13,6,,0.00,3,,167
2013-7-3,75,73,71,73,72,70,100,95,88,30.06,30.02,29.97,10,9,2,12,5,17,0.55,5,Rain-Thunderstorm,82
2013-7-4,77,72,72,73,72,72,100,96,87,30.03,29.98,29.94,10,4,0,15,7,25,4.70,6,Fog-Rain-Thunderstorm,111
2013-7-5,75,72,69,74,72,69,100,98,93,30.13,30.08,30.04,10,7,0,18,6,24,2.64,4,Fog-Rain-Thunderstorm,141
2013-7-6,78,74,71,75,73,70,100,94,77,30.09,30.06,30.02,10,8,1,10,6,,0.93,4,Rain,125
2013-7-7,86,79,72,75,73,72,100,91,62,30.14,30.09,30.06,10,6,0,12,4,,0.00,4,Fog-Rain,84
2013-7-8,89,81,73,75,74,71,100,91,55,30.19,30.14,30.11,10,8,0,13,4,,0.00,5,Fog-Rain-Thunderstorm,68
2013-7-9,90,78,68,74,70,68,100,87,57,30.22,30.15,30.09,10,6,0,12,2,,0.00,2,Fog,320
2013-7-10,91,81,72,77,73,72,100,86,56,30.12,30.06,29.99,10,10,7,13,3,,0.02,5,Rain-Thunderstorm,276
2013-7-11,79,74,71,75,73,72,100,96,79,30.03,29.98,29.91,10,6,0,20,5,25,1.29,5,Rain-Thunderstorm,180
2013-7-12,90,78,69,75,72,70,100,84,55,29.94,29.90,29.86,10,7,0,18,3,24,0.49,2,Fog-Rain-Thunderstorm,3
2013-7-13,86,78,69,73,71,68,100,86,65,30.01,29.95,29.89,10,9,1,18,5,25,0.70,5,Rain-Thunderstorm,43
2013-7-14,81,80,77,75,74,73,91,84,75,30.04,30.03,30.01,10,10,10,10,9,,0.00,0,,106
2013-7-15,88,81,73,75,71,68,100,78,55,30.16,30.11,30.06,10,10,10,12,6,,0.00,5,Thunderstorm,81
2013-7-16,90,80,72,75,73,70,100,82,54,30.22,30.16,30.12,10,10,4,14,8,22,0.55,5,Rain-Thunderstorm,91
2013-7-17,92,82,71,74,72,68,99,75,46,30.24,30.18,30.10,10,10,10,13,4,17,0.00,1,,44
2013-7-18,89,79,69,75,71,66,100,84,56,30.15,30.09,29.59,10,6,0,25,5,37,0.94,3,Rain-Thunderstorm,3
2013-7-19,87,78,71,75,73,70,100,88,58,30.11,30.06,29.99,10,8,1,9,3,,0.00,1,,79
2013-7-20,85,79,73,77,75,73,100,90,70,30.06,30.02,29.96,10,9,1,16,6,22,0.34,3,Rain-Thunderstorm,176
2013-7-21,88,80,75,76,73,70,100,83,60,30.07,30.05,30.01,10,8,0,28,7,36,0.44,2,Fog-Rain,218
2013-7-22,86,79,72,76,74,72,100,90,70,30.09,30.05,30.03,10,8,0,23,8,25,1.38,6,Fog-Rain-Thunderstorm,220
2013-7-23,90,80,70,78,74,68,100,88,55,30.04,30.00,29.93,10,9,3,20,6,28,0.11,5,Rain-Thunderstorm,251
2013-7-24,86,78,71,78,75,69,100,87,70,29.96,29.92,29.88,10,10,1,17,7,25,0.52,5,Rain-Thunderstorm,260
2013-7-25,89,80,71,76,73,70,100,84,58,30.01,29.95,29.88,10,9,2,9,5,,0.10,4,Rain,313
2013-7-26,92,81,71,75,71,66,100,79,42,30.05,30.02,29.97,10,5,1,12,3,,0.00,0,,301
2013-7-27,87,79,71,77,72,68,100,84,58,29.99,29.97,29.94,10,8,0,16,4,22,0.00,3,Fog-Rain-Thunderstorm,166
2013-7-28,87,80,73,76,74,70,100,88,66,30.02,29.96,29.91,10,10,2,14,6,17,0.18,2,Rain,179
2013-7-29,90,82,73,78,76,73,100,82,59,30.15,30.07,30.00,10,8,2,12,5,18,0.19,4,Rain,144
2013-7-30,91,82,73,77,75,73,99,78,55,30.17,30.12,30.08,10,10,6,14,4,17,0.00,3,Thunderstorm,178
2013-7-31,86,80,75,79,76,70,99,85,68,30.11,30.06,30.01,10,10,5,12,4,,0.14,5,Rain-Thunderstorm,185